When you browse on this site, cookies collect data to enhance your experience and personalize the content and advertising you see.
Visit our Privacy Policy to learn more. By continuing to use the site, you agree to this use of cookies and data.
  • en France
  • Liste des pays
  • À 7 jours
  • Température de l'eau
  • Carte satellitaire
  • Carte météo
  • Widgets météo
  • user-avatar
    Se connecter

    Météo par heure à Algérie

    Ce jour, 19 Janvier, Samedi

    Heure Température Précipitation Vent Pression Humidité
    00:00 +10°C° 0 mm 3 m/s 749 mmHg 76%
    01:00 +10°C° 0.2 mm 3 m/s 749 mmHg 75%
    02:00 +10°C° 0.2 mm 3 m/s 749 mmHg 73%
    03:00 +10°C° 0.2 mm 3 m/s 749 mmHg 72%
    04:00 +10°C° 0.3 mm 3 m/s 749 mmHg 73%
    05:00 +10°C° 0.3 mm 3 m/s 749 mmHg 74%
    06:00 +10°C° 0.3 mm 3 m/s 749 mmHg 74%
    07:00 +10°C° 0.4 mm 4 m/s 749 mmHg 75%
    08:00 +10°C° 0.4 mm 4 m/s 749 mmHg 75%
    09:00 +11°C° 0.4 mm 4 m/s 749 mmHg 76%
    10:00 +11°C° 0.3 mm 4 m/s 749 mmHg 73%
    11:00 +12°C° 0.3 mm 4 m/s 749 mmHg 70%
    12:00 +12°C° 0.3 mm 4 m/s 749 mmHg 67%
    13:00 +12°C° 0 mm 5 m/s 749 mmHg 63%
    14:00 +13°C° 0 mm 5 m/s 749 mmHg 59%
    15:00 +13°C° 0 mm 6 m/s 748 mmHg 55%
    16:00 +13°C° 0 mm 5 m/s 748 mmHg 57%
    17:00 +12°C° 0 mm 5 m/s 748 mmHg 60%
    18:00 +11°C° 0 mm 4 m/s 748 mmHg 62%
    19:00 +11°C° 0 mm 4 m/s 749 mmHg 62%
    20:00 +10°C° 0 mm 4 m/s 749 mmHg 63%
    21:00 +10°C° 0 mm 3 m/s 749 mmHg 64%
    22:00 +10°C° 0 mm 3 m/s 749 mmHg 64%
    23:00 +10°C° 0 mm 3 m/s 748 mmHg 64%

    Demain, 20 Janvier, Dimanche

    Heure Température Précipitation Vent Pression Humidité
    00:00 +10°C° 0 mm 3 m/s 748 mmHg 64%
    01:00 +10°C° 0 mm 3 m/s 748 mmHg 62%
    02:00 +10°C° 0 mm 4 m/s 747 mmHg 61%
    03:00 +10°C° 0 mm 4 m/s 747 mmHg 60%
    04:00 +10°C° 0 mm 4 m/s 746 mmHg 62%
    05:00 +10°C° 0 mm 4 m/s 746 mmHg 64%
    06:00 +10°C° 0 mm 4 m/s 745 mmHg 66%
    07:00 +11°C° 0.2 mm 4 m/s 745 mmHg 67%
    08:00 +11°C° 0.2 mm 4 m/s 745 mmHg 69%
    09:00 +11°C° 0.2 mm 4 m/s 745 mmHg 71%
    10:00 +12°C° 0.3 mm 4 m/s 745 mmHg 70%
    11:00 +13°C° 0.3 mm 4 m/s 744 mmHg 69%
    12:00 +14°C° 0.3 mm 4 m/s 744 mmHg 68%
    13:00 +13°C° 0.9 mm 4 m/s 744 mmHg 70%
    14:00 +13°C° 0.9 mm 3 m/s 743 mmHg 72%
    15:00 +13°C° 0.9 mm 3 m/s 743 mmHg 74%
    16:00 +12°C° 0.1 mm 3 m/s 743 mmHg 75%
    17:00 +12°C° 0.1 mm 3 m/s 743 mmHg 76%
    18:00 +12°C° 0.1 mm 3 m/s 744 mmHg 77%
    19:00 +12°C° 0.2 mm 4 m/s 744 mmHg 78%
    20:00 +12°C° 0.2 mm 4 m/s 744 mmHg 79%
    21:00 +10°C° 0.2 mm 5 m/s 744 mmHg 79%
    22:00 +10°C° 0.2 mm 5 m/s 744 mmHg 81%
    23:00 +10°C° 0.2 mm 5 m/s 744 mmHg 83%

    Après-demain, 21 Janvier, Lundi

    Heure Température Précipitation Vent Pression Humidité
    00:00 +10°C° 0.2 mm 5 m/s 744 mmHg 84%
    01:00 +10°C° 0.2 mm 6 m/s 744 mmHg 84%
    02:00 +10°C° 0.2 mm 6 m/s 744 mmHg 83%
    03:00 +10°C° 0.2 mm 6 m/s 744 mmHg 83%
    04:00 +10°C° 0.6 mm 7 m/s 744 mmHg 84%
    05:00 +10°C° 0.6 mm 7 m/s 744 mmHg 86%
    06:00 +10°C° 0.6 mm 8 m/s 745 mmHg 87%
    07:00 +10°C° 0.9 mm 8 m/s 745 mmHg 85%
    08:00 +10°C° 0.9 mm 9 m/s 746 mmHg 83%
    09:00 +10°C° 0.9 mm 9 m/s 747 mmHg 82%
    10:00 +10°C° 0.7 mm 8 m/s 747 mmHg 80%
    11:00 +10°C° 0.7 mm 6 m/s 748 mmHg 77%
    12:00 +10°C° 0.7 mm 5 m/s 748 mmHg 75%
    13:00 +11°C° 0.9 mm 4 m/s 748 mmHg 74%
    14:00 +11°C° 0.9 mm 4 m/s 748 mmHg 73%
    15:00 +11°C° 0.9 mm 4 m/s 749 mmHg 72%
    16:00 +11°C° 1 mm 3 m/s 749 mmHg 73%
    17:00 +11°C° 1 mm 3 m/s 749 mmHg 75%
    18:00 +10°C° 1 mm 2 m/s 750 mmHg 76%
    19:00 +10°C° 0.9 mm 2 m/s 750 mmHg 77%
    20:00 +10°C° 0.9 mm 2 m/s 750 mmHg 78%
    21:00 +10°C° 0.9 mm 2 m/s 751 mmHg 78%
    22:00 +9°C° 0.9 mm 2 m/s 751 mmHg 80%
    23:00 +9°C° 0.9 mm 2 m/s 751 mmHg 81%

    22 Janvier, Mardi

    Heure Température Précipitation Vent Pression Humidité
    00:00 +9°C° 0.9 mm 2 m/s 751 mmHg 82%
    01:00 +9°C° 1 mm 2 m/s 751 mmHg 84%
    02:00 +9°C° 1 mm 2 m/s 751 mmHg 86%
    03:00 +8°C° 1 mm 3 m/s 750 mmHg 88%
    04:00 +8°C° 0.5 mm 3 m/s 750 mmHg 87%
    05:00 +8°C° 0.5 mm 3 m/s 750 mmHg 87%
    06:00 +8°C° 0.5 mm 3 m/s 750 mmHg 86%
    07:00 +9°C° 0.3 mm 3 m/s 751 mmHg 83%
    08:00 +9°C° 0.3 mm 3 m/s 751 mmHg 79%
    09:00 +10°C° 0.3 mm 3 m/s 751 mmHg 76%
    10:00 +10°C° 0.3 mm 4 m/s 751 mmHg 71%
    11:00 +10°C° 0.3 mm 5 m/s 750 mmHg 67%
    12:00 +11°C° 0.3 mm 6 m/s 750 mmHg 62%
    13:00 +11°C° 0.2 mm 7 m/s 749 mmHg 60%
    14:00 +11°C° 0.2 mm 7 m/s 748 mmHg 58%
    15:00 +11°C° 0.2 mm 8 m/s 747 mmHg 57%
    16:00 +10°C° 0 mm 7 m/s 747 mmHg 57%
    17:00 +9°C° 0 mm 7 m/s 747 mmHg 57%
    18:00 +9°C° 0 mm 7 m/s 746 mmHg 58%
    19:00 +9°C° 0.1 mm 7 m/s 746 mmHg 59%
    20:00 +9°C° 0.1 mm 7 m/s 746 mmHg 59%
    21:00 +9°C° 0.1 mm 7 m/s 746 mmHg 60%
    22:00 +9°C° 1.1 mm 7 m/s 745 mmHg 67%
    23:00 +9°C° 1.1 mm 8 m/s 744 mmHg 73%

    23 Janvier, Mercredi

    Heure Température Précipitation Vent Pression Humidité
    00:00 +8°C° 1.1 mm 9 m/s 743 mmHg 79%
    01:00 +8°C° 1.8 mm 9 m/s 742 mmHg 81%
    02:00 +8°C° 1.8 mm 10 m/s 741 mmHg 82%
    03:00 +8°C° 1.8 mm 10 m/s 740 mmHg 83%
    04:00 +8°C° 1.3 mm 10 m/s 740 mmHg 78%
    05:00 +8°C° 1.3 mm 10 m/s 739 mmHg 72%
    06:00 +8°C° 1.3 mm 10 m/s 739 mmHg 66%
    07:00 +8°C° 1 mm 11 m/s 739 mmHg 64%
    08:00 +8°C° 1 mm 12 m/s 739 mmHg 62%
    09:00 +8°C° 1 mm 13 m/s 740 mmHg 60%
    10:00 +8°C° 0.8 mm 13 m/s 740 mmHg 58%
    11:00 +8°C° 0.8 mm 13 m/s 740 mmHg 56%
    12:00 +8°C° 0.8 mm 13 m/s 739 mmHg 54%
    13:00 +8°C° 0.8 mm 13 m/s 739 mmHg 58%
    14:00 +8°C° 0.8 mm 12 m/s 738 mmHg 61%
    15:00 +7°C° 0.8 mm 11 m/s 737 mmHg 64%
    16:00 +7°C° 5.9 mm 11 m/s 737 mmHg 73%
    17:00 +6°C° 5.9 mm 11 m/s 736 mmHg 82%
    18:00 +4°C° 5.9 mm 12 m/s 735 mmHg 91%
    19:00 +5°C° 0.9 mm 12 m/s 736 mmHg 79%
    20:00 +7°C° 0.9 mm 12 m/s 737 mmHg 67%
    21:00 +7°C° 0.9 mm 12 m/s 737 mmHg 56%
    22:00 +7°C° 0.1 mm 12 m/s 738 mmHg 53%
    23:00 +7°C° 0.1 mm 12 m/s 738 mmHg 50%

    24 Janvier, Jeudi

    Heure Température Précipitation Vent Pression Humidité
    00:00 +7°C° 0.1 mm 12 m/s 738 mmHg 48%
    01:00 +7°C° 0 mm 11 m/s 738 mmHg 48%
    02:00 +6°C° 0 mm 11 m/s 738 mmHg 49%
    03:00 +6°C° 0 mm 10 m/s 738 mmHg 49%
    04:00 +6°C° 0.1 mm 10 m/s 738 mmHg 50%
    05:00 +6°C° 0.1 mm 9 m/s 738 mmHg 52%
    06:00 +6°C° 0.1 mm 9 m/s 738 mmHg 53%
    07:00 +6°C° 0 mm 9 m/s 738 mmHg 52%
    08:00 +7°C° 0 mm 9 m/s 738 mmHg 51%
    09:00 +7°C° 0 mm 8 m/s 738 mmHg 50%
    10:00 +7°C° 0.2 mm 8 m/s 738 mmHg 50%
    11:00 +7°C° 0.2 mm 8 m/s 739 mmHg 51%
    12:00 +7°C° 0.2 mm 8 m/s 739 mmHg 52%
    13:00 +6°C° 0.6 mm 8 m/s 739 mmHg 55%
    14:00 +6°C° 0.6 mm 7 m/s 739 mmHg 58%
    15:00 +6°C° 0.6 mm 7 m/s 739 mmHg 61%
    16:00 +5°C° 0.3 mm 6 m/s 739 mmHg 61%
    17:00 +6°C° 0.3 mm 5 m/s 739 mmHg 61%
    18:00 +5°C° 0.3 mm 5 m/s 740 mmHg 62%
    19:00 +5°C° 0.1 mm 4 m/s 740 mmHg 62%
    20:00 +5°C° 0.1 mm 4 m/s 741 mmHg 62%
    21:00 +5°C° 0.1 mm 3 m/s 741 mmHg 62%
    22:00 +5°C° 0.1 mm 3 m/s 742 mmHg 63%
    23:00 +4°C° 0.1 mm 4 m/s 742 mmHg 65%
    Voir plus